Карточка аэропорта UASS

Внимание!
Информация на этой странице в стадии наполнения.
Если вы не увидели какой-то информации, или заметили неточность - пожалуйста сообщите нам!
Спасибо!
Команда RU-STAFF
Название аэропортаСемей
Название аэропорта (англ.)Semey
Превышение764 ft. (232.9 m.)
Координаты50°21.018', 80°13.776'
Высота перехода10000ft
Эшелон переходаFL120, QNH<733:FL130
Коды ответчика7254-7257, 0674-0677
Зона ОрВДАлматы РПИ (UAAA)
Данные METARUASS 200030Z 29002MPS 260V320 CAVOK 20/19 Q1001 NOSIG RMK QFE733/0977
Проноз погоды (TAF)UASS 200056Z 2001/2009 14003MPS 9999 SCT040 BKN100 TEMPO 2001/2009 20006G13MPS 3100 -TSRA SCT011 BKN030CB
NOTAMshow/hide NOTAM
AWOS   TABLE

Информация о ВПП


Диспетчерские позиции




Спутниковое изображение